Weather History for Grand Forks AFB, ND

Change the Weather History Date:

Monday, April 8, 2013

  Actual Average Record
Temperature  
Mean Temperature 23 °F -  
Max Temperature 31 °F 44 °F 71 °F (2005)
Min Temperature 13 °F 26 °F 5 °F (1997)
Degree Days  
Heating Degree Days 42    
Moisture  
Dew Point 20 °F    
Average Humidity 85    
Maximum Humidity 100    
Minimum Humidity 68    
Precipitation  
Precipitation 0.00 in - - ()
Sea Level Pressure  
Sea Level Pressure 30.02 in    
Wind  
Wind Speed 14 mph (NNE)    
Max Wind Speed 25 mph    
Max Gust Speed 31 mph    
Visibility 10 miles    
Events      
Averages and records for this station are not official NWS values.
T = Trace of Precipitation, MM = Missing Value Source: NWS Daily Summary

Daily Weather History Graph

Daily Weather History Graph

Search for Another Location

Airport:

Trip Planner

Search our weather history database for the weather conditions in past years. The results will help you decide how hot, cold, wet, or windy it might be!

Date:

Astronomy

Apr. 08, 2013 Rise Set
Actual Time 6:53 AM CDT 8:10 PM CDT
Civil Twilight 6:21 AM CDT 8:42 PM CDT
Nautical Twilight 5:42 AM CDT 9:21 PM CDT
Astronomical Twilight 5:01 AM CDT 10:02 PM CDT
Moon 5:50 AM CDT (4/8) 6:41 PM CDT (4/8)
Length of Visible Light 14h 20m
Length of Day
13h 16m
Waning Crescent, 3% of the Moon is Illuminated
Apr 8
Waning Crescent
Apr 10
New
Apr 18
First Quarter
Apr 25
Full
May 2
Last Quarter

Hourly Weather History & Observations

Time (CDT) Temp. Windchill Dew Point Humidity Pressure Visibility Wind Dir Wind Speed Gust Speed Precip Events Conditions
12:39 AM 32.0 °F 24.8 °F 32.0 °F 100% 29.87 in 8.0 mi NE 8.1 mph - N/A   Overcast
12:49 AM 32.0 °F 25.6 °F 32.0 °F 100% 29.87 in 10.0 mi NNE 6.9 mph - N/A   Overcast
12:55 AM 31.6 °F 24.4 °F 31.5 °F 99% 29.87 in 10.0 mi NE 8.1 mph - N/A   Overcast
1:51 AM 30.2 °F 21.3 °F 30.2 °F 100% 29.89 in 8.0 mi NNE 10.4 mph - N/A   Overcast
2:00 AM 30.2 °F 21.3 °F 30.2 °F 100% 29.89 in 7.0 mi NNE 10.4 mph - N/A   Overcast
2:45 AM 30.2 °F 20.8 °F 30.2 °F 100% 29.89 in 6.0 mi NE 11.5 mph - N/A   Overcast
2:49 AM 30.2 °F 20.8 °F 30.2 °F 100% 29.89 in 7.0 mi NE 11.5 mph - N/A   Overcast
2:55 AM 30.6 °F 21.8 °F 30.4 °F 99% 29.89 in 8.0 mi NE 10.4 mph - N/A   Overcast
3:01 AM 30.2 °F 21.3 °F 30.2 °F 100% 29.89 in 10.0 mi NE 10.4 mph - N/A   Overcast
3:14 AM 30.2 °F 21.9 °F 30.2 °F 100% 29.89 in 10.0 mi NNE 9.2 mph - N/A   Overcast
3:17 AM 30.2 °F 20.8 °F 30.2 °F 100% 29.89 in 10.0 mi NNE 11.5 mph - N/A   Overcast
3:21 AM 30.2 °F 20.2 °F 30.2 °F 100% 29.90 in 10.0 mi North 12.7 mph - N/A   Overcast
3:55 AM 29.3 °F 19.1 °F 28.8 °F 98% 29.89 in 10.0 mi NNE 12.7 mph 21.9 mph N/A   Overcast
4:55 AM 26.2 °F 13.8 °F 25.0 °F 95% 29.91 in 10.0 mi NNE 16.1 mph - N/A   Overcast
5:41 AM 24.8 °F 11.1 °F 23.0 °F 93% 29.93 in 10.0 mi North 18.4 mph - N/A   Overcast
5:55 AM 24.6 °F 11.3 °F 22.8 °F 93% 29.93 in 10.0 mi NNE 17.3 mph 24.2 mph N/A   Overcast
6:39 AM 23.0 °F 8.0 °F 19.4 °F 86% 29.95 in 10.0 mi NNE 20.7 mph - N/A   Overcast
6:55 AM 22.5 °F 8.9 °F 19.0 °F 87% 29.96 in 10.0 mi North 16.1 mph 23.0 mph N/A   Overcast
7:02 AM 21.2 °F 5.6 °F 17.6 °F 86% 29.96 in 10.0 mi NNE 20.7 mph 26.5 mph N/A   Overcast
7:55 AM 21.6 °F 5.7 °F 16.5 °F 81% 29.97 in 10.0 mi NNE 21.9 mph 26.5 mph N/A   Overcast
8:55 AM 21.6 °F 4.7 °F 15.8 °F 78% 29.95 in 10.0 mi NE 25.3 mph - N/A   Overcast
8:56 AM 21.2 °F 4.9 °F 15.8 °F 80% 29.96 in 10.0 mi NE 23.0 mph 28.8 mph N/A   Mostly Cloudy
9:22 AM 23.0 °F 8.0 °F 17.6 °F 80% 29.99 in 10.0 mi NNE 20.7 mph 27.6 mph N/A   Mostly Cloudy
9:55 AM 22.8 °F 6.3 °F 15.8 °F 74% 29.99 in 10.0 mi NNE 25.3 mph - N/A   Overcast
10:55 AM 21.9 °F 5.8 °F 15.4 °F 76% 30.02 in 10.0 mi North 23.0 mph 27.6 mph N/A   Overcast
11:22 AM 23.0 °F 8.0 °F 15.8 °F 74% 30.04 in 10.0 mi North 20.7 mph 28.8 mph N/A   Overcast
11:55 AM 23.0 °F 7.6 °F 16.5 °F 76% 30.04 in 10.0 mi North 21.9 mph 27.6 mph N/A   Overcast
12:55 PM 23.4 °F 7.4 °F 16.5 °F 75% 30.08 in 10.0 mi NNE 24.2 mph 31.1 mph N/A   Overcast
1:55 PM 23.2 °F 7.1 °F 16.5 °F 76% 30.11 in 10.0 mi NNE 24.2 mph 31.1 mph N/A   Overcast
2:55 PM 23.5 °F 8.0 °F 17.1 °F 76% 30.14 in 10.0 mi NNE 23.0 mph 28.8 mph N/A   Mostly Cloudy
3:55 PM 22.8 °F 7.7 °F 16.2 °F 76% 30.15 in 10.0 mi North 20.7 mph 28.8 mph N/A   Overcast
4:55 PM 22.3 °F 7.0 °F 14.9 °F 73% 30.18 in 10.0 mi North 20.7 mph 29.9 mph N/A   Overcast
5:55 PM 21.4 °F 6.6 °F 13.5 °F 72% 30.21 in 10.0 mi North 18.4 mph - N/A   Mostly Cloudy
6:55 PM 19.9 °F 5.7 °F 10.8 °F 68% 30.23 in 10.0 mi North 16.1 mph - N/A   Overcast
7:55 PM 18.7 °F 3.6 °F 9.7 °F 68% 30.25 in 10.0 mi North 17.3 mph 23.0 mph N/A   Overcast
8:55 PM 17.2 °F 2.2 °F 8.4 °F 68% 30.27 in 10.0 mi North 16.1 mph - N/A   Clear
9:55 PM 16.2 °F 1.9 °F 7.9 °F 70% 30.30 in 10.0 mi North 13.8 mph - N/A   Scattered Clouds
10:55 PM 14.5 °F 1.1 °F 7.3 °F 73% 30.33 in 10.0 mi North 11.5 mph - N/A   Clear
11:55 PM 13.3 °F 2.0 °F 6.8 °F 75% 30.35 in 10.0 mi North 8.1 mph - N/A   Clear